Find Starlink 5995

NORAD ID: 56456 Int'l Des: 2023-064 Owner: SPXS Country: US Constellation: starlink operational
LEOCIRCULAR

リアルタイム位置

3D地球を読み込み中...

Starlink 5995について

説明を読み込み中...

次回通過

Passes for default location (London). Set your location on the main map for personalized predictions.

高度履歴

Loading altitude history...

軌道要素

1 56456U 23064J 26126.09498270 -.00061134 00000-0 -52258-2 0 9998
2 56456 69.9997 359.7661 0002263 225.5474 134.5500 14.97846001163846
Epoch: May 6, 2026 • Age: 12 hours

現在のステータス

高度 574.8 km
速度 7.58 km/s
衛星直下点 16.22°N, 94.67°E
打ち上げ日 May 10, 2023
運用期間 2.9 years
タイプ internet

技術仕様

分類 Payload
質量 305.00 kg
乾燥質量 290.00 kg
総質量 305.00 kg
長さ 0.20 m
直径 2.80 m
スパン 9.00 m
形状 Box + pan
製造者 SPXS
バスタイプ Starlink
フェーズステータス In Orbit
所有者/国 SPXS/US

Most Searched